Regional Weather Roundup
Issued by NWS Upton, NY

Home | Current Version | Previous Version | Text Only | Print | Product List | Glossary On
Versions: 1 2 3 4 5 6 7 8 9 10 11 12 13 14 15 16 17 18 19 20 21 22 23 24 25 26 27 28 29 30 31 32 33 34 35 36 37 38 39 40 41 42 43 44 45 46 47 48 49
000
ASUS41 KOKX 281207
RWROKX

REGIONAL WEATHER ROUNDUP
NATIONAL WEATHER SERVICE NEW YORK NY
800 AM EDT TUE APR 28 2015

NOTE: "FAIR" INDICATES FEW OR NO CLOUDS BELOW 12,000 FEET WITH NO
SIGNIFICANT WEATHER AND/OR OBSTRUCTIONS TO VISIBILITY.

NYZ071-072-176-178-NJZ106-104-281300-
NEW YORK CITY METRO AREA


CITY           SKY/WX    TMP DP  RH WIND       PRES   REMARKS
CENTRAL PARK   SUNNY     52  36  54 N9        29.82R
LAGUARDIA APRT MOSUNNY   53  37  54 N16G26    29.79R
KENNEDY INTL   MOSUNNY   55  36  48 N14G25    29.79R
NEWARK/LIBERTY MOSUNNY   54  39  57 N14G21    29.80R
BRNX BOT. GARD   N/A     52  36  54 N3        29.79S
TETERBORO      SUNNY     53  37  54 N10       29.79R
$$

NYZ177-179-078>081-281300-
LONG ISLAND NEW YORK

CITY           SKY/WX    TMP DP  RH WIND       PRES   REMARKS
FARMINGDALE    SUNNY     52  38  58 N14G23    29.78R
ISLIP          MOSUNNY   52  38  58 N14       29.75R
SHIRLEY        SUNNY     51  39  63 N15       29.77R
WESTHAMPTON    CLOUDY    50  38  63 N8        29.77R
MONTAUK POINT    N/A     47  40  76 N9        29.76R
$$

NYZ052-065-067-281300-
HUDSON VALLEY

CITY           SKY/WX    TMP DP  RH WIND       PRES   REMARKS
WHITE PLAINS   MOSUNNY   51  37  58 NW18G24   29.77R
NEWBURGH       NOT AVBL
MONTGOMERY     CLOUDY    54  38  54 VRB3      29.80R
POUGHKEEPSIE   SUNNY     51  37  58 N21G30    29.81R
ALBANY         MOSUNNY   49  37  63 N8        29.85R
$$

NJZ001-105-106-008-010-013-015-019>022-104-281300-
NEW JERSEY

CITY           SKY/WX    TMP DP  RH WIND       PRES   REMARKS
NEWARK/LIBERTY MOSUNNY   54  39  57 N14G21    29.80R
TETERBORO      SUNNY     53  37  54 N10       29.79R
CALDWELL       SUNNY     52  39  61 VRB6      29.81R
MORRISTOWN     SUNNY     52  39  62 NW10G17   29.81R
SOMERVILLE     SUNNY     54  38  54 N12G18    29.80R
SUSSEX         SUNNY     52  39  61 N7        29.82R
ANDOVER          N/A     51  39  63 VRB6      29.82R
TRENTON        SUNNY     53  39  59 N15G21    29.81R
MILLVILLE      SUNNY     53  41  63 NW12      29.83R
ATLANTIC CITY  SUNNY     53  40  61 NW17      29.81R
WRIGHTSTOWN    SUNNY     52  41  64 NW12      29.79R
TOMS RIVER     SUNNY     52  39  62 N15G22    29.80S
BELMAR         SUNNY     52  36  54 N10       29.79S
$$

PAZ047>061-062-071-281300-
EASTERN PENNSYLVANIA

CITY           SKY/WX    TMP DP  RH WIND       PRES   REMARKS
PHILADELPHIA   MOSUNNY   53  39  59 NW16      29.84R
ALLENTOWN      MOSUNNY   52  40  63 NW8       29.85R
SCRANTON       CLOUDY    47  39  74 N8        29.87R
$$

CTZ002-004>006-009-010-012-RIZ004-006-007-MAZ004-011-015-281300-
SOUTHERN NEW ENGLAND
 IN CT

CITY           SKY/WX    TMP DP  RH WIND       PRES   REMARKS
BRADLEY INTL   MOSUNNY   51  34  52 N17G26    29.77R
HARTFORD       MOSUNNY   50  34  54 N13G21    29.77R
DANBURY        SUNNY     50  35  56 N13G18    29.79R
WTRBRY/OXFORD  MOSUNNY   46  36  66 N12       29.78R
BRIDGEPORT     SUNNY     52  39  61 N17G23    29.77R
MERIDEN        MOSUNNY   50  36  58 N13       29.77R
NEW HAVEN      MOSUNNY   51  37  58 N15G23    29.76R
CHESTER        PTSUNNY   46  34  61 N12       29.76R
GROTON         LGT RAIN  47  38  71 N12G20    29.76R
WILLIMANTIC    CLOUDY    46  37  71 N5        29.77R

 IN RI

CITY           SKY/WX    TMP DP  RH WIND       PRES   REMARKS
PROVIDENCE     PTSUNNY   45  37  73 N16G28    29.75R
BLOCK ISLAND   MOSUNNY   45  37  76 N10       29.74R
WESTERLY       CLOUDY    47  38  71 N10G20    29.75R

 IN MA

CITY           SKY/WX    TMP DP  RH WIND       PRES   REMARKS
BOSTON         PTSUNNY   45  34  65 N20       29.75R
WORCESTER      CLOUDY    42  39  89 N6        29.74R
WESTFIELD      SUNNY     51  33  50 N18G28    29.77R
PROVINCETOWN   CLOUDY   N/A N/A N/A N20G29    29.72R
NANTUCKET      CLOUDY    43  34  70 N29G37    29.68R
$$

ANZ330-335-338-340-345-350-353-355-281300-
COASTAL MARINE OBSERVATIONS


STATION/POSITION TIME  SKY/WX   TEMP    WIND        PRES    VSBY  WAVE
                                AIR SEA DIR/SP/G                  HT/PER
                 (UTC)          (F)     (DEG/KT/KT) (MB)    (MI)  (FT/S)
NY HARB ENTRANCE 1150            50 47  350/ 14/ 17 1008.1          2/ 3
4S FIRE IS       1103               44                N/A           2/ 3
20S FIRE ISLAND  1150            46 44  340/ 12/ 14 1007.9          2/ 4
23SW MTP         1150            44 43   30/ 16/ 17 1007.0          2/ 4
HUDSON CANYON    NOT AVBL
EXECUTION ROCKS  NOT AVBL
WESTERN LI SOUND NOT AVBL
CENTRAL LI SOUND NOT AVBL
EASTERN LI SOUND 1100            45      20/  6/ 10   N/A
ROBBINS REEF     1118            50     330/ 11/ 15 1007.6
$$


>>>>>>>>>>>>>>>>>>>>>>>>>>>> KEY <<<<<<<<<<<<<<<<<<<<<<<<<<<
>                                                          <
>     SKY/WX - SKY CONDITION/PRESENT WEATHER               <
>     TMP    - TEMPERATURE IN FAHRENHEIT                   <
>     DP     - DEWPOINT IN FAHRENHEIT                      <
>     RH     - RELATIVE HUMIDITY IN PERCENT                <
>     WIND   - DIRECTION AND SPEED IN MPH                  <
>     PRES   - MEAN SEA LEVEL PRESSURE IN INCHES OF HG     <
>     WCI    - WIND CHILL INDEX                            <
>     VSB    - VISIBILITY IN MILES                         <
>     HX     - HEAT INDEX                                  <
>     TC     - TEMPERATURE IN CELSIUS                      <
>     VRB    - VARIABLE WIND DIRECTION                     <
>                                                          <
>>>>>>>>>>>>>>>>>>>>>>>>>>>> KEY <<<<<<<<<<<<<<<<<<<<<<<<<<<





USA.gov is the U.S. government's official web portal to all federal, state and local government web resources and services.